Simultaneous Nadir Overpasses (SNOs) Predictions

Prediction of SNOs over PacNW region [( 10.00, 139.50) to ( 22.70, 165.60)] between AQUA and NPP Satellites:

Table of predicted SNOs over PacNW region for the next 30.0 days since TLE Epoch: 11/11/2016
Index Date (AQUA) Time (AQUA) AQUA Lat,Lon Date (NPP) Time (NPP) NPP Lat,Lon Distance(km) Time Diff (sec)
1 11/13/2016 15:09:29 22.62, 159.84 11/13/2016 15:11:43 23.22, 157.16 281.96 134
2 11/16/2016 03:31:18 22.65, 147.52 11/16/2016 03:27:52 22.30, 145.78 182.28 206
3 11/21/2016 15:58:53 22.59, 147.48 11/21/2016 16:02:21 23.61, 144.56 319.88 208
4 11/24/2016 02:41:49 22.67, 159.89 11/24/2016 02:38:20 26.56, 157.37 502.05 209
5 11/29/2016 15:09:21 22.62, 159.87 11/29/2016 15:11:42 23.21, 157.13 288.41 141
6 12/02/2016 03:31:10 22.70, 147.55 12/02/2016 03:27:52 22.35, 145.75 189.27 198
7 12/07/2016 15:58:40 22.64, 147.55 12/07/2016 16:02:09 24.20, 144.68 340.05 209




NCC Satellite Simultaneous Nadir Overpasses (SNOs) Prediction Service
